Terminal Aerodrome Forecast
Issued by NWS State College, PA

Home | Current Version | Previous Version | Text Only | Print | Product List | Glossary On
Versions: 1 2 3 4 5 6 7 8 9 10 11 12 13 14 15 16 17 18 19 20 21 22 23 24 25 26 27 28 29 30 31 32 33 34 35 36 37 38 39 40 41 42 43 44 45 46 47 48 49 50
000
FTUS41 KCTP 262141 AAA
TAFIPT
TAF AMD
KIPT 262141Z 2622/2718 12010G20KT P6SM OVC015
     FM270400 09007KT 4SM -RADZ BR BKN006 OVC012
     FM271600 23007KT 5SM BR BKN018=

USA.gov is the U.S. government's official web portal to all federal, state and local government web resources and services.